Weather History for EGPN - July, 2013

Change the Weather History Date:

Friday, July 26, 2013

  Actual Average Record
Temperature  
Mean Temperature 68 °F -  
Max Temperature 75 °F 65 °F 77 °F (2006)
Min Temperature 60 °F 55 °F 51 °F (2004)
Cooling Degree Days 2    
Growing Degree Days 18 (Base 50)    
Moisture  
Dew Point 60 °F    
Average Humidity 78    
Maximum Humidity 100    
Minimum Humidity 61    
Precipitation  
Precipitation 0.00 in - - ()
Sea Level Pressure  
Sea Level Pressure 29.81 in    
Wind  
Wind Speed 4 mph ()    
Max Wind Speed 10 mph    
Max Gust Speed -    
Visibility 5.8 miles    
Events Thunderstorm    
Averages and records for this station are not official NWS values.
T = Trace of Precipitation, MM = Missing Value Source: Averaged Metar Reports

Daily Weather History Graph

Daily Weather History Graph

Search for Another Location

Airport or City:

Trip Planner

Search our weather history database for the weather conditions in past years. The results will help you decide how hot, cold, wet, or windy it might be!

Date:

Astronomy

Jul. 26, 2013 Rise Set
Actual Time 5:02 AM BST 9:33 PM BST
Civil Twilight 4:10 AM BST 10:25 PM BST
Nautical Twilight 2:44 AM BST 11:48 PM BST
Astronomical Twilight Sun does not set Sun does not set
Moon 10:29 PM BST (7/26) 10:27 AM BST (7/26)
Length of Visible Light 18h 14m
Length of Day
16h 30m
Waning Gibbous, 82% of the Moon is Illuminated
Jul 26
Waning Gibbous
Jul 29
Last Quarter
Aug 6
New
Aug 14
First Quarter
Aug 21
Full

Hourly Weather History & Observations

Time (BST) Temp. Dew Point Humidity Pressure Visibility Wind Dir Wind Speed Gust Speed Precip Events Conditions
7:20 AM 60.8 °F 60.8 °F 100% 29.80 in 2.5 mi ESE 5.8 mph - N/A   Mostly Cloudy
7:50 AM 60.8 °F 59.0 °F 94% 29.83 in 3.1 mi East 5.8 mph - N/A   Mostly Cloudy
8:20 AM 60.8 °F 59.0 °F 94% 29.83 in 3.7 mi East 5.8 mph - N/A   Mostly Cloudy
8:50 AM 62.6 °F 60.8 °F 94% 29.83 in 5.0 mi East 3.5 mph - N/A   Mostly Cloudy
9:20 AM 64.4 °F 60.8 °F 88% 29.83 in 6.2 mi East 2.3 mph - N/A   Mostly Cloudy
9:50 AM 68.0 °F 60.8 °F 78% 29.83 in 6.2 mi Calm Calm - N/A   Mostly Cloudy
10:20 AM 68.0 °F 60.8 °F 78% 29.83 in 6.2 mi Calm Calm - N/A   Scattered Clouds
10:50 AM 68.0 °F 62.6 °F 83% 29.83 in 6.2 mi South 2.3 mph - N/A   Scattered Clouds
11:50 AM 68.0 °F 62.6 °F 83% 29.83 in 6.2 mi ESE 4.6 mph - N/A   Scattered Clouds
12:20 PM 68.0 °F 59.0 °F 73% 29.83 in 6.2 mi SE 3.5 mph - N/A   Scattered Clouds
12:50 PM 68.0 °F 59.0 °F 73% 29.80 in 6.2 mi SSE 2.3 mph - N/A   Scattered Clouds
1:20 PM 68.0 °F 60.8 °F 78% 29.80 in 6.2 mi ESE 4.6 mph - N/A   Scattered Clouds
1:50 PM 73.4 °F 60.8 °F 65% 29.80 in 6.2 mi SW 2.3 mph - N/A   Scattered Clouds
2:20 PM 69.8 °F 60.8 °F 73% 29.80 in 6.2 mi SW 3.5 mph - N/A   Scattered Clouds
2:50 PM 69.8 °F 60.8 °F 73% 29.80 in 6.2 mi WSW 9.2 mph - N/A   Scattered Clouds
3:20 PM 75.2 °F 62.6 °F 65% 29.80 in 6.2 mi West 9.2 mph - N/A   Scattered Clouds
3:50 PM 73.4 °F 59.0 °F 61% 29.80 in 6.2 mi SW 8.1 mph - N/A   Partly Cloudy
4:20 PM 68.0 °F 59.0 °F 73% 29.80 in 6.2 mi SSW 5.8 mph - N/A   Partly Cloudy
4:50 PM 69.8 °F 60.8 °F 73% 29.80 in 6.2 mi SSW 8.1 mph - N/A   Partly Cloudy
5:20 PM 69.8 °F 60.8 °F 73% 29.80 in 6.2 mi South 8.1 mph - N/A   Partly Cloudy
5:50 PM 68.0 °F 59.0 °F 73% 29.80 in 6.2 mi South 10.4 mph - N/A   Partly Cloudy
6:20 PM 68.0 °F 59.0 °F 73% 29.80 in 6.2 mi South 10.4 mph - N/A   Partly Cloudy
6:50 PM 68.0 °F 59.0 °F 73% 29.80 in 6.2 mi South 9.2 mph - N/A   Partly Cloudy
7:20 PM 66.2 °F 59.0 °F 78% 29.80 in 6.2 mi South 9.2 mph - N/A   Partly Cloudy
7:50 PM 68.0 °F 59.0 °F 73% 29.80 in 6.2 mi SW 5.8 mph - N/A   Partly Cloudy
8:20 PM 68.0 °F 59.0 °F 73% 29.80 in 6.2 mi WSW 3.5 mph - N/A Thunderstorm Partly Cloudy
8:50 PM 68.0 °F 59.0 °F 73% 29.80 in 6.2 mi WSW 3.5 mph - N/A   Partly Cloudy
9:20 PM 66.2 °F 60.8 °F 83% 29.80 in 6.2 mi SW 4.6 mph - N/A   Partly Cloudy
9:50 PM 64.4 °F 57.2 °F 77% 29.83 in 6.2 mi ENE 1.2 mph - N/A   Partly Cloudy